Preview of NWS' New Version of Forecast
This preview is not operational and should not be used for support decisions.

Regional Weather Roundup (RWR)

Issued by National Weather Service (NWS)

                            
000
ASUS45 KBOI 220810
RWRID 

IDAHO REGIONAL WEATHER ROUNDUP
NATIONAL WEATHER SERVICE BOISE ID
200 AM MDT SUN SEP 22 2019

NOTE: "FAIR" INDICATES FEW OR NO CLOUDS BELOW 12000 FEET
WITH NO SIGNIFICANT WEATHER AND/OR OBSTRUCTIONS TO VISIBILITY

IDZ012-014-220900-
SOUTHWEST IDAHO

  
CITY           SKY/WX    TMP DP  RH WIND       PRES   REMARKS
BOISE          CLEAR     53  41  63 SE6       30.06R                  
CALDWELL       CLEAR     49  43  80 NE6       30.05S                  
MOUNTAIN HOME  CLEAR     47  41  80 CALM      30.07S                  
$$

IDZ016-017-220900-
SOUTHCENTRAL IDAHO

  
CITY           SKY/WX    TMP DP  RH WIND       PRES   REMARKS
BURLEY         CLEAR     44  36  73 SW7       30.11R                  
JEROME         CLEAR     49  37  63 SE7       30.11S                  
TWIN FALLS     CLEAR     47  36  65 S12       30.11S                  
$$

IDZ019>023-220900-
SOUTHEAST IDAHO

  
CITY           SKY/WX    TMP DP  RH WIND       PRES   REMARKS
IDAHO FALLS    PTCLDY    42  37  82 W7        30.12S                  
POCATELLO      CLEAR     49  35  58 VRB5      30.12S                  
REXBURG        CLOUDY    46  41  82 W6        30.12R                  
$$

IDZ006-010-011-018-031-032-220900-
CENTRAL IDAHO MOUNTAINS

  
CITY           SKY/WX    TMP DP  RH WIND       PRES   REMARKS
MCCALL         CLEAR     40  35  83 CALM      30.10F                  
HAILEY         CLEAR     43  37  81 NW9       30.16S                  
STANLEY          N/A     34  30  85 S6        30.19S WCI  29          
SALMON         CLOUDY    49  43  80 E5        30.10S                  
CHALLIS        CLOUDY    47  38  71 CALM      30.12S                  
$$

IDZ002-004-006-007-026-220900-
NORTHERN IDAHO

  
CITY           SKY/WX    TMP DP  RH WIND       PRES   REMARKS
LEWISTON       CLEAR     57  46  66 SE6       29.97F                  
LOWELL           N/A     51  49  92 CALM      30.07S                  
COEUR D'ALENE  CLEAR     45  42  89 NE5       30.00F                  
MULLAN PASS    CLEAR     44  38  79 S5        30.09F                  
$$